| time (UTC) | temp C | wind direction | speed KPH | gust KPH | rain 1hr cm | rain 24hr cm | rain mn cm | humidity % | barometer mb |
| 20260902193332 | 26 | 201 | 1.6 | 8.0 | 0.00 | 0.23 | 0.23 | 79 | 1016.1 |
| 20260902192316 | 25 | 195 | 1.6 | 8.0 | 0.00 | 0.23 | 0.23 | 82 | 1016.2 |
| 20260902191316 | 25 | 120 | 4.8 | 12.9 | 0.00 | 0.23 | 0.23 | 83 | 1016.3 |
| 20260902190314 | 25 | 97 | 1.6 | 6.4 | 0.00 | 0.23 | 0.23 | 83 | 1016.6 |
| 20260902185347 | 25 | 145 | 3.2 | 9.7 | 0.00 | 0.23 | 0.23 | 83 | 1016.9 |
| 20260902184334 | 26 | 159 | 1.6 | 8.0 | 0.00 | 0.23 | 0.23 | 81 | 1016.9 |
| 20260902183339 | 26 | 169 | 1.6 | 14.5 | 0.00 | 0.23 | 0.23 | 81 | 1016.8 |
| 20260902182340 | 26 | 155 | 6.4 | 12.9 | 0.00 | 0.23 | 0.23 | 80 | 1017.0 |
| 20260902181336 | 26 | 131 | 3.2 | 9.7 | 0.00 | 0.23 | 0.23 | 82 | 1016.8 |
| 20260902180315 | 26 | 175 | 1.6 | 4.8 | 0.00 | 0.23 | 0.23 | 81 | 1017.0 |
| 20260902175349 | 25 | 337 | 0.0 | 6.4 | 0.00 | 0.23 | 0.23 | 84 | 1016.8 |
| 20260902174330 | 25 | 40 | 3.2 | 11.3 | 0.15 | 0.23 | 0.23 | 83 | 1016.7 |
| 20260902173332 | 25 | 109 | 1.6 | 12.9 | 0.23 | 0.23 | 0.23 | 86 | 1017.2 |
| 20260902172313 | 25 | 24 | 4.8 | 12.9 | 0.23 | 0.23 | 0.23 | 90 | 1017.8 |
| 20260902171314 | 23 | 36 | 4.8 | 9.7 | 0.23 | 0.23 | 0.23 | 91 | 1018.3 |
| 20260902170337 | 23 | 41 | 3.2 | 8.0 | 0.23 | 0.23 | 0.23 | 90 | 1018.1 |
| 20260902165351 | 23 | 5 | 4.8 | 14.5 | 0.23 | 0.23 | 0.23 | 83 | 1018.5 |
| 20260902164317 | 25 | 47 | 6.4 | 32.2 | 0.05 | 0.05 | 0.05 | 72 | 1019.3 |
| 20260902163336 | 28 | 321 | 17.7 | 51.5 | 0.00 | 0.00 | 0.00 | 61 | 1019.8 |
| 20260902162314 | 30 | 324 | 9.7 | 16.1 | 0.00 | 0.00 | 0.00 | 67 | 1018.3 |
| 20260902161335 | 31 | 342 | 6.4 | 9.7 | 0.00 | 0.00 | 0.00 | 66 | 1017.7 |
| 20260902160356 | 30 | 208 | 1.6 | 3.2 | 0.00 | 0.00 | 0.00 | 69 | 1017.5 |
| 20260902155326 | 30 | 208 | 1.6 | 4.8 | 0.00 | 0.00 | 0.00 | 69 | 1017.5 |
| 20260902154334 | 30 | 209 | 3.2 | 6.4 | 0.00 | 0.00 | 0.00 | 69 | 1017.4 |
| 20260902153314 | 31 | 215 | 3.2 | 6.4 | 0.00 | 0.00 | 0.00 | 68 | 1017.1 |
| 20260902152315 | 30 | 171 | 6.4 | 11.3 | 0.00 | 0.00 | 0.00 | 68 | 1016.9 |
| 20260902151315 | 30 | 157 | 4.8 | 12.9 | 0.00 | 0.00 | 0.00 | 69 | 1016.9 |
| 20260902150315 | 30 | 166 | 4.8 | 11.3 | 0.00 | 0.00 | 0.00 | 70 | 1017.0 |
| 20260902145314 | 30 | 171 | 3.2 | 6.4 | 0.00 | 0.00 | 0.00 | 67 | 1016.9 |
| 20260902144358 | 30 | 156 | 4.8 | 9.7 | 0.00 | 0.00 | 0.00 | 69 | 1016.9 |
| 20260902143313 | 30 | 185 | 6.4 | 11.3 | 0.00 | 0.00 | 0.00 | 68 | 1016.9 |
| 20260902142336 | 29 | 138 | 1.6 | 11.3 | 0.00 | 0.00 | 0.00 | 70 | 1017.0 |
| 20260902141314 | 29 | 168 | 4.8 | 12.9 | 0.00 | 0.00 | 0.00 | 70 | 1017.0 |
| 20260902140337 | 28 | 139 | 4.8 | 8.0 | 0.00 | 0.00 | 0.00 | 72 | 1016.8 |
| 20260902135313 | 28 | 175 | 4.8 | 8.0 | 0.00 | 0.00 | 0.00 | 71 | 1016.8 |
| 20260902134312 | 28 | 177 | 1.6 | 11.3 | 0.00 | 0.00 | 0.00 | 74 | 1016.7 |
| 20260902133312 | 27 | 209 | 3.2 | 9.7 | 0.00 | 0.00 | 0.00 | 74 | 1017.0 |
| 20260902132338 | 27 | 190 | 4.8 | 9.7 | 0.00 | 0.00 | 0.00 | 76 | 1017.0 |
| 20260902131333 | 27 | 235 | 4.8 | 9.7 | 0.00 | 0.00 | 0.00 | 79 | 1017.0 |
| 20260902130338 | 26 | 263 | 4.8 | 9.7 | 0.00 | 0.00 | 0.00 | 82 | 1017.0 |
| 20260902125319 | 26 | 236 | 3.2 | 6.4 | 0.00 | 0.00 | 0.00 | 86 | 1016.9 |
| 20260902124323 | 25 | 271 | 3.2 | 4.8 | 0.00 | 0.00 | 0.00 | 90 | 1016.8 |
| 20260902123312 | 23 | 163 | 1.6 | 3.2 | 0.00 | 0.00 | 0.00 | 92 | 1016.6 |
| 20260902122316 | 23 | 163 | 0.0 | 3.2 | 0.00 | 0.00 | 0.00 | 93 | 1016.5 |
| 20260902121336 | 22 | 163 | 0.0 | 1.6 | 0.00 | 0.00 | 0.00 | 94 | 1016.6 |
| 20260902120314 | 22 | 163 | 0.0 | 0.0 | 0.00 | 0.00 | 0.00 | 94 | 1016.5 |
| 20260902115314 | 22 | 163 | 0.0 | 0.0 | 0.00 | 0.00 | 0.00 | 94 | 1016.4 |
| 20260902114317 | 22 | 163 | 1.6 | 3.2 | 0.00 | 0.00 | 0.00 | 94 | 1016.4 |
| 20260902113336 | 22 | 163 | 0.0 | 1.6 | 0.00 | 0.00 | 0.00 | 94 | 1016.3 |
| 20260902112315 | 22 | 163 | 0.0 | 0.0 | 0.00 | 0.00 | 0.00 | 94 | 1016.2 |
| 20260902111338 | 21 | 163 | 0.0 | 3.2 | 0.00 | 0.00 | 0.00 | 93 | 1016.4 |
| 20260902110313 | 21 | 163 | 1.6 | 6.4 | 0.00 | 0.00 | 0.00 | 93 | 1016.5 |
| 20260902105318 | 21 | 150 | 3.2 | 6.4 | 0.00 | 0.00 | 0.00 | 93 | 1016.6 |
| 20260902104328 | 22 | 196 | 1.6 | 4.8 | 0.00 | 0.00 | 0.00 | 93 | 1016.8 |
| 20260902103315 | 22 | 188 | 1.6 | 4.8 | 0.00 | 0.00 | 0.00 | 93 | 1016.6 |
| 20260902102314 | 22 | 108 | 1.6 | 3.2 | 0.00 | 0.00 | 0.00 | 93 | 1016.6 |
| 20260902101312 | 22 | 108 | 0.0 | 1.6 | 0.00 | 0.00 | 0.00 | 93 | 1016.6 |
| 20260902100319 | 22 | 108 | 0.0 | 1.6 | 0.00 | 0.00 | 0.00 | 93 | 1016.5 |
| 20260902095330 | 22 | 108 | 0.0 | 1.6 | 0.00 | 0.00 | 0.00 | 93 | 1016.6 |
| 20260902094311 | 22 | 108 | 0.0 | 0.0 | 0.00 | 0.00 | 0.00 | 93 | 1016.5 |
| 20260902093330 | 22 | 108 | 1.6 | 4.8 | 0.00 | 0.00 | 0.00 | 93 | 1016.3 |
| 20260902092342 | 22 | 108 | 0.0 | 0.0 | 0.00 | 0.00 | 0.00 | 93 | 1016.2 |
| 20260902091321 | 22 | 108 | 0.0 | 1.6 | 0.00 | 0.00 | 0.00 | 93 | 1016.3 |
| 20260902090321 | 22 | 108 | 0.0 | 0.0 | 0.00 | 0.00 | 0.00 | 92 | 1016.3 |
| 20260902085318 | 22 | 108 | 0.0 | 0.0 | 0.00 | 0.00 | 0.00 | 92 | 1016.2 |
| 20260902084321 | 22 | 108 | 0.0 | 1.6 | 0.00 | 0.00 | 0.00 | 92 | 1016.1 |
| 20260902083356 | 22 | 108 | 0.0 | 1.6 | 0.00 | 0.00 | 0.00 | 91 | 1016.2 |
| 20260902082320 | 22 | 108 | 0.0 | 1.6 | 0.00 | 0.00 | 0.00 | 91 | 1016.2 |
| 20260902081341 | 22 | 108 | 0.0 | 1.6 | 0.00 | 0.00 | 0.00 | 91 | 1016.2 |
| 20260902080317 | 22 | 108 | 0.0 | 1.6 | 0.00 | 0.00 | 0.00 | 91 | 1016.2 |
| 20260902075317 | 22 | 108 | 0.0 | 3.2 | 0.00 | 0.00 | 0.00 | 90 | 1016.2 |
| 20260902074317 | 22 | 108 | 0.0 | 1.6 | 0.00 | 0.00 | 0.00 | 90 | 1016.0 |
| 20260902073335 | 22 | 108 | 0.0 | 1.6 | 0.00 | 0.00 | 0.00 | 90 | 1016.0 |
| 20260902072315 | 22 | 108 | 1.6 | 3.2 | 0.00 | 0.00 | 0.00 | 89 | 1016.0 |
| 20260902071340 | 22 | 108 | 1.6 | 3.2 | 0.00 | 0.00 | 0.00 | 89 | 1015.8 |
| 20260902070338 | 22 | 108 | 0.0 | 3.2 | 0.00 | 0.00 | 0.00 | 89 | 1015.9 |
| 20260902065337 | 22 | 181 | 1.6 | 3.2 | 0.00 | 0.00 | 0.00 | 89 | 1015.8 |
| 20260902064339 | 22 | 181 | 0.0 | 3.2 | 0.00 | 0.00 | 0.00 | 89 | 1015.8 |
| 20260902063323 | 22 | 181 | 1.6 | 3.2 | 0.00 | 0.00 | 0.00 | 89 | 1015.8 |
| 20260902062318 | 23 | 181 | 0.0 | 3.2 | 0.00 | 0.00 | 0.00 | 88 | 1015.7 |
| 20260902061334 | 23 | 159 | 1.6 | 3.2 | 0.00 | 0.00 | 0.00 | 88 | 1015.6 |
| 20260902060318 | 23 | 159 | 1.6 | 3.2 | 0.00 | 0.00 | 0.00 | 87 | 1015.8 |
| 20260902055317 | 23 | 294 | 0.0 | 4.8 | 0.00 | 0.00 | 0.00 | 87 | 1015.7 |
| 20260902054317 | 23 | 125 | 0.0 | 3.2 | 0.00 | 0.00 | 0.00 | 86 | 1015.7 |
| 20260902053317 | 23 | 125 | 1.6 | 3.2 | 0.00 | 0.00 | 0.00 | 86 | 1015.9 |
| 20260902052318 | 23 | 125 | 3.2 | 4.8 | 0.00 | 0.00 | 0.00 | 85 | 1016.1 |
| 20260902051333 | 23 | 125 | 0.0 | 3.2 | 0.00 | 0.00 | 0.00 | 84 | 1016.1 |
| 20260902050337 | 24 | 125 | 1.6 | 4.8 | 0.00 | 0.00 | 0.00 | 84 | 1016.2 |
| 20260902045337 | 24 | 125 | 1.6 | 3.2 | 0.00 | 0.00 | 0.00 | 83 | 1016.3 |
| 20260902044339 | 24 | 125 | 1.6 | 3.2 | 0.00 | 0.00 | 0.00 | 82 | 1016.1 |
| 20260902043337 | 25 | 125 | 0.0 | 3.2 | 0.00 | 0.00 | 0.00 | 81 | 1015.9 |
| 20260902042333 | 25 | 125 | 0.0 | 4.8 | 0.00 | 0.00 | 0.00 | 81 | 1015.6 |
| 20260902041318 | 25 | 125 | 0.0 | 3.2 | 0.00 | 0.00 | 0.00 | 80 | 1015.7 |
| 20260902040337 | 25 | 125 | 1.6 | 3.2 | 0.00 | 0.00 | 0.00 | 80 | 1015.8 |
| 20260902035335 | 25 | 125 | 3.2 | 4.8 | 0.00 | 0.00 | 0.00 | 79 | 1015.6 |
| 20260902034339 | 25 | 125 | 3.2 | 4.8 | 0.00 | 0.00 | 0.00 | 79 | 1015.5 |
| 20260902033330 | 25 | 125 | 1.6 | 3.2 | 0.00 | 0.00 | 0.00 | 79 | 1015.4 |
| 20260902032328 | 25 | 125 | 1.6 | 3.2 | 0.00 | 0.00 | 0.00 | 79 | 1015.2 |
| 20260902031338 | 25 | 125 | 0.0 | 4.8 | 0.00 | 0.00 | 0.00 | 78 | 1015.0 |
| 20260902030335 | 25 | 125 | 1.6 | 4.8 | 0.00 | 0.00 | 0.00 | 78 | 1015.0 |
| 20260902025320 | 25 | 125 | 1.6 | 6.4 | 0.00 | 0.00 | 0.00 | 78 | 1014.9 |
| 20260902024333 | 25 | 235 | 1.6 | 4.8 | 0.00 | 0.00 | 0.00 | 78 | 1014.7 |
| 20260902023318 | 25 | 98 | 3.2 | 4.8 | 0.00 | 0.00 | 0.00 | 78 | 1014.4 |
| 20260902022320 | 25 | 152 | 1.6 | 8.0 | 0.00 | 0.00 | 0.00 | 78 | 1014.3 |
| 20260902021336 | 25 | 113 | 0.0 | 6.4 | 0.00 | 0.00 | 0.00 | 78 | 1014.4 |
| 20260902020318 | 26 | 128 | 1.6 | 4.8 | 0.00 | 0.00 | 0.00 | 77 | 1014.4 |
| 20260902015318 | 26 | 128 | 3.2 | 4.8 | 0.00 | 0.00 | 0.00 | 76 | 1014.5 |
| 20260902014320 | 26 | 128 | 1.6 | 3.2 | 0.00 | 0.00 | 0.00 | 74 | 1014.4 |
| 20260902013315 | 27 | 128 | 1.6 | 4.8 | 0.00 | 0.00 | 0.00 | 72 | 1014.4 |
| 20260902012315 | 28 | 128 | 3.2 | 4.8 | 0.00 | 0.00 | 0.00 | 70 | 1014.5 |
| 20260902011334 | 28 | 284 | 3.2 | 4.8 | 0.00 | 0.00 | 0.00 | 67 | 1014.6 |
| 20260902010334 | 28 | 272 | 1.6 | 9.7 | 0.00 | 0.00 | 0.00 | 66 | 1014.3 |
| 20260902005318 | 28 | 284 | 6.4 | 17.7 | 0.00 | 0.00 | 0.00 | 66 | 1013.7 |
| 20260902004338 | 28 | 244 | 3.2 | 6.4 | 0.00 | 0.00 | 0.00 | 67 | 1013.4 |
| 20260902003337 | 29 | 293 | 1.6 | 16.1 | 0.00 | 0.00 | 0.00 | 65 | 1013.3 |
| 20260902002340 | 29 | 265 | 6.4 | 16.1 | 0.00 | 0.00 | 0.00 | 65 | 1013.3 |
| 20260902001314 | 29 | 300 | 8.0 | 14.5 | 0.00 | 0.00 | 0.00 | 65 | 1013.1 |
| 20260902000331 | 29 | 257 | 3.2 | 14.5 | 0.00 | 0.00 | 0.00 | 66 | 1013.1 |
| 20260901235315 | 30 | 238 | 3.2 | 6.4 | 0.00 | 0.00 | 0.00 | 65 | 1013.0 |
| 20260901234335 | 30 | 241 | 3.2 | 8.0 | 0.00 | 0.00 | 0.00 | 64 | 1012.8 |
| 20260901233315 | 30 | 229 | 3.2 | 12.9 | 0.00 | 0.00 | 0.00 | 63 | 1012.7 |
| 20260901232315 | 31 | 250 | 4.8 | 11.3 | 0.00 | 0.00 | 0.00 | 62 | 1012.7 |
| 20260901231317 | 31 | 236 | 4.8 | 8.0 | 0.00 | 0.00 | 0.00 | 62 | 1012.6 |
| 20260901230355 | 32 | 246 | 3.2 | 14.5 | 0.00 | 0.00 | 0.00 | 59 | 1012.7 |
| 20260901225314 | 32 | 302 | 4.8 | 16.1 | 0.00 | 0.00 | 0.00 | 57 | 1012.7 |
| 20260901224339 | 32 | 315 | 3.2 | 12.9 | 0.00 | 0.00 | 0.00 | 56 | 1012.7 |
| 20260901223316 | 33 | 330 | 6.4 | 8.0 | 0.00 | 0.00 | 0.00 | 58 | 1012.7 |
| 20260901222340 | 33 | 304 | 3.2 | 11.3 | 0.00 | 0.00 | 0.00 | 55 | 1012.7 |
| 20260901221322 | 33 | 281 | 3.2 | 11.3 | 0.00 | 0.00 | 0.00 | 57 | 1012.7 |
| 20260901220320 | 32 | 297 | 4.8 | 8.0 | 0.00 | 0.00 | 0.00 | 56 | 1012.7 |
| 20260901215317 | 32 | 252 | 3.2 | 12.9 | 0.00 | 0.00 | 0.00 | 56 | 1012.7 |
| 20260901214316 | 33 | 309 | 6.4 | 14.5 | 0.00 | 0.00 | 0.00 | 55 | 1012.7 |
| 20260901213332 | 33 | 309 | 4.8 | 9.7 | 0.00 | 0.00 | 0.00 | 56 | 1012.9 |
| 20260901212321 | 32 | 288 | 8.0 | 16.1 | 0.00 | 0.00 | 0.00 | 54 | 1012.9 |
| 20260901211314 | 32 | 280 | 6.4 | 16.1 | 0.00 | 0.00 | 0.00 | 54 | 1012.9 |
| 20260901210338 | 33 | 280 | 9.7 | 20.9 | 0.00 | 0.00 | 0.00 | 53 | 1012.8 |
| 20260901205313 | 33 | 277 | 8.0 | 17.7 | 0.00 | 0.00 | 0.00 | 54 | 1012.9 |
| 20260901204322 | 33 | 322 | 6.4 | 16.1 | 0.00 | 0.00 | 0.00 | 52 | 1012.8 |
| 20260901203316 | 34 | 265 | 8.0 | 20.9 | 0.00 | 0.00 | 0.00 | 52 | 1012.9 |
| 20260901202329 | 34 | 315 | 12.9 | 20.9 | 0.00 | 0.00 | 0.00 | 50 | 1012.9 |
| 20260901201334 | 35 | 302 | 9.7 | 16.1 | 0.00 | 0.00 | 0.00 | 54 | 1013.0 |
| 20260901200335 | 35 | 316 | 9.7 | 19.3 | 0.00 | 0.00 | 0.00 | 51 | 1013.0 |
| 20260901195322 | 35 | 293 | 9.7 | 17.7 | 0.00 | 0.00 | 0.00 | 50 | 1013.0 |
| 20260901194317 | 35 | 269 | 9.7 | 19.3 | 0.00 | 0.00 | 0.00 | 51 | 1013.1 |